This is the latest recevied weather packets stored in our database for station/object JH7UAX-10. If no packets are shown the sender has not sent any weather packets the latest 10 day(s).
| Time | Temp. | Humidity | Pressure | Rain* | Wind** | Luminosity | Snow |
|---|---|---|---|---|---|---|---|
| 1778152078 | 15.56° C | 80% | 1021.9 hPa | 0 mm | - | - | - |
| 1778151604 | 16.11° C | 78% | 1022.1 hPa | 0 mm | - | - | - |
| 1778151178 | 16.67° C | 76% | 1022 hPa | 0 mm | - | - | - |
| 1778150706 | 17.22° C | 74% | 1021.9 hPa | 0 mm | - | - | - |
| 1778150278 | 17.78° C | 72% | 1021.8 hPa | 0 mm | - | - | - |
| 1778149806 | 17.78° C | 72% | 1021.7 hPa | 0 mm | - | - | - |
| 1778149378 | 17.78° C | 71% | 1021.6 hPa | 0 mm | - | - | - |
| 1778148905 | 17.78° C | 71% | 1021.6 hPa | 0 mm | - | - | - |
| 1778148477 | 17.78° C | 71% | 1021.5 hPa | 0 mm | - | - | - |
| 1778147579 | 18.33° C | 69% | 1021.4 hPa | 0 mm | - | - | - |
| 1778147106 | 18.33° C | 69% | 1021.4 hPa | 0 mm | - | - | - |
| 1778146679 | 18.33° C | 69% | 1021.3 hPa | 0 mm | - | - | - |
| 1778145779 | 18.89° C | 67% | 1021.5 hPa | 0 mm | - | - | - |
| 1778145304 | 19.44° C | 66% | 1021.6 hPa | 0 mm | - | - | - |
| 1778144878 | 19.44° C | 66% | 1021.6 hPa | 0 mm | - | - | - |
| 1778143978 | 20° C | 64% | 1021.7 hPa | 0 mm | - | - | - |
| 1778143506 | 20.56° C | 64% | 1021.7 hPa | 0 mm | - | - | - |
| 1778143079 | 20.56° C | 62% | 1021.7 hPa | 0 mm | - | - | - |
| 1778142179 | 20.56° C | 61% | 1021.7 hPa | 0 mm | - | - | - |
| 1778141704 | 20.56° C | 60% | 1021.7 hPa | 0 mm | - | - | - |
| 1778141278 | 21.11° C | 61% | 1021.7 hPa | 0 mm | - | - | - |
| 1778140378 | 21.11° C | 60% | 1021.7 hPa | 0 mm | - | - | - |
| 1778139906 | 21.67° C | 59% | 1021.7 hPa | 0 mm | - | - | - |
| 1778139478 | 21.67° C | 59% | 1021.8 hPa | 0 mm | - | - | - |
| 1778139006 | 21.67° C | 59% | 1021.7 hPa | 0 mm | - | - | - |
* Rain latest hour (hover to see other rain measurements)
** Current wind speed in m/s (hover to see current wind gust speed)